Location: Medlow Airstrip Trail, Medlow Bath NSW 2780, Australia
(33.6682°S, 150.3233°E)
Time: 11:25:48
(UTC+11:00)

Explorer 7 - All Passes

Search period start: 19 October 2019 00:00
Search period end: 29 October 2019 00:00
Orbit: 485 x 680 km, 50.3° (Epoch: 18 October)

Date Brightness Start Highest point End Pass type
(mag) Time Alt. Az. Time Alt. Az. Time Alt. Az.
19 Oct - 00:52:51 10° WNW 00:57:34 43° SW 01:02:16 10° SE visible
19 Oct - 02:36:32 10° SW 02:39:14 14° SSW 02:41:55 10° SSE visible
19 Oct - 04:20:29 10° S 04:21:39 11° S 04:22:49 10° SSE visible
19 Oct - 06:00:09 10° SSW 06:03:48 21° SSE 06:07:17 10° ESE daylight
19 Oct - 07:40:16 10° SW 07:44:52 79° NW 07:49:09 10° NE daylight
19 Oct - 23:17:07 10° NNW 23:21:52 54° NE 23:26:43 10° ESE night (unlit)
20 Oct - 00:58:24 10° W 01:02:44 30° SSW 01:07:04 10° SSE visible
20 Oct - 02:42:42 10° SW 02:44:41 12° S 02:46:39 10° SSE visible
20 Oct - 04:25:15 10° SSW 04:27:09 12° S 04:29:00 10° SSE visible
20 Oct - 06:04:53 10° SSW 06:09:04 30° SSE 06:13:01 10° E daylight
20 Oct - 07:45:25 10° WSW 07:49:47 44° NW 07:53:51 10° NNE daylight
20 Oct - 21:44:39 10° NNE 21:46:47 13° NE 21:48:55 10° E night (unlit)
20 Oct - 23:21:55 10° NW 23:26:48 90° NE 23:31:48 10° SE night (unlit)
21 Oct - 01:04:10 10° WSW 01:07:59 22° SSW 01:11:49 10° SSE visible
21 Oct - 02:48:49 10° SSW 02:50:11 11° S 02:51:32 10° S visible
21 Oct - 04:29:57 10° SSW 04:32:36 14° SSE 04:35:11 10° SE visible
21 Oct - 06:09:41 10° SW 06:14:14 45° SE 06:18:30 10° ENE daylight
21 Oct - 07:50:52 10° WSW 07:54:36 25° NW 07:58:07 10° N daylight
21 Oct - 21:47:48 10° N 21:51:31 22° NE 21:55:18 10° ESE night (unlit)
21 Oct - 23:27:01 10° WNW 23:31:50 57° SW 23:36:44 10° SE night (unlit)
22 Oct - 01:10:07 10° WSW 01:13:20 17° SSW 01:16:32 10° SSE visible
22 Oct - 02:54:31 10° SSW 02:55:41 11° S 02:56:52 10° SSE visible
22 Oct - 04:34:37 10° SSW 04:37:59 18° SSE 04:41:14 10° ESE visible
22 Oct - 06:14:34 10° SW 06:19:19 74° SE 06:23:43 10° NE daylight
22 Oct - 07:56:57 10° W 07:59:19 14° NW 08:01:37 10° NNW daylight
22 Oct - 21:51:53 10° NNW 21:56:18 38° NE 22:00:52 10° ESE night (unlit)
22 Oct - 23:32:23 10° WNW 23:36:57 38° SSW 23:41:35 10° SE night (unlit)
23 Oct - 01:16:13 10° SW 01:18:44 14° SSW 01:21:16 10° SSE visible
23 Oct - 02:59:35 10° SSW 03:01:12 11° S 03:02:49 10° SSE visible
23 Oct - 04:39:20 10° SSW 04:43:18 24° SSE 04:47:06 10° E visible
23 Oct - 06:19:35 10° SW 06:24:17 66° NW 06:28:39 10° NE daylight
23 Oct - 21:56:27 10° NW 22:01:11 64° NE 22:06:06 10° SE night (unlit)
23 Oct - 23:38:00 10° W 23:42:09 27° SSW 23:46:21 10° SSE night (unlit)
24 Oct - 01:22:21 10° SSW 01:24:12 12° S 01:26:04 10° SSE visible
24 Oct - 03:04:22 10° SSW 03:06:41 13° SSE 03:08:58 10° SE visible
24 Oct - 04:44:05 10° SW 04:48:31 35° SSE 04:52:44 10° E visible
24 Oct - 06:24:48 10° WSW 06:29:09 37° NW 06:33:14 10° NNE daylight
24 Oct - 20:23:22 10° NNE 20:26:04 15° NE 20:28:48 10° E visible
24 Oct - 22:01:21 10° NW 22:06:08 78° SW 22:11:08 10° SE visible
24 Oct - 23:43:49 10° WSW 23:47:26 20° SSW 23:51:06 10° SSE night (unlit)
25 Oct - 01:28:19 10° SSW 01:29:43 11° S 01:31:06 10° SSE visible
25 Oct - 03:09:05 10° SSW 03:12:07 16° SSE 03:15:04 10° ESE visible
25 Oct - 04:48:55 10° SW 04:53:40 53° SE 04:58:08 10° ENE visible
25 Oct - 06:30:22 10° WSW 06:33:56 22° NW 06:37:20 10° N daylight
25 Oct - 20:26:54 10° N 20:30:47 26° NE 20:34:50 10° ESE visible
25 Oct - 22:06:32 10° WNW 22:11:12 49° SW 22:16:02 10° SE visible
25 Oct - 23:49:50 10° SW 23:52:48 16° SSW 23:55:48 10° SSE night (unlit)
26 Oct - 01:33:47 10° SSW 01:35:13 11° S 01:36:39 10° SSE visible
26 Oct - 03:13:47 10° SSW 03:17:29 21° SSE 03:21:03 10° ESE visible
26 Oct - 04:53:50 10° SW 04:58:42 86° SE 05:03:16 10° NE visible
26 Oct - 06:36:50 10° W 06:38:38 12° WNW 06:40:24 10° NNW daylight
26 Oct - 20:31:09 10° NNW 20:35:35 44° NE 20:40:16 10° ESE visible
26 Oct - 22:11:58 10° W 22:16:20 33° SSW 22:20:50 10° SSE visible
26 Oct - 23:55:56 10° SW 23:58:14 13° SSW 00:00:34 10° SSE visible
27 Oct - 01:38:46 10° SSW 01:40:43 12° S 01:42:40 10° SSE visible
27 Oct - 03:18:31 10° SSW 03:22:45 28° SSE 03:26:49 10° E visible
27 Oct - 04:58:54 10° WSW 05:03:38 56° NW 05:08:05 10° NNE visible
27 Oct - 20:35:49 10° NW 20:40:30 76° NE 20:45:25 10° SE visible
27 Oct - 22:17:39 10° W 22:21:35 24° SSW 22:25:35 10° SSE visible
28 Oct - 00:02:02 10° SSW 00:03:43 12° S 00:05:25 10° SSE visible
28 Oct - 01:43:33 10° SSW 01:46:11 14° SSE 01:48:48 10° SE visible
28 Oct - 03:23:18 10° SW 03:27:57 40° SE 03:32:22 10° ENE visible
28 Oct - 05:04:12 10° WSW 05:08:29 32° NW 05:12:32 10° NNE visible
28 Oct - 19:02:17 10° NNE 19:05:20 18° NE 19:08:29 10° E daylight
28 Oct - 20:40:49 10° WNW 20:45:29 67° SW 20:50:24 10° SE visible
28 Oct - 22:23:31 10° WSW 22:26:54 18° SSW 22:30:19 10° SSE visible
